Weather History for Vancouver, WA

Change the Weather History Date:

Thursday, June 20, 2013

  Actual Average Record
Temperature  
Mean Temperature 62 °F 64 °F  
Max Temperature 69 °F 74 °F 90 °F (2004)
Min Temperature 54 °F 54 °F 43 °F (1929)
Degree Days  
Heating Degree Days 3    
Month to date heating degree days 53  
Since 1 June heating degree days 53  
Since 1 July heating degree days 4197  
Cooling Degree Days 0    
Month to date cooling degree days 15  
Year to date cooling degree days 27  
Since 1 June cooling degree days 15  
Growing Degree Days 10 (Base 50)    
Moisture  
Dew Point 49 °F    
Average Humidity 67    
Maximum Humidity 86    
Minimum Humidity 48    
Precipitation  
Precipitation 0.04 in 0.05 in 1.39 in (1912)
Month to date precipitation 1.09 1.35  
Year to date precipitation 14.32 19.93  
Snow  
Snow 0.00 in - - ()
Month to date snowfall 0.0  
Since 1 June snowfall 0.0  
Snow Depth 0.00 in    
Sea Level Pressure  
Sea Level Pressure 30.08 in    
Wind  
Wind Speed 4 mph (West)    
Max Wind Speed 10 mph    
Max Gust Speed 15 mph    
Visibility 10 miles    
Events Rain    
T = Trace of Precipitation, MM = Missing Value Source: NWS Daily Summary

Daily Weather History Graph

Daily Weather History Graph

Search for Another Location

Airport:

Trip Planner

Search our weather history database for the weather conditions in past years. The results will help you decide how hot, cold, wet, or windy it might be!

Date:

Astronomy

Jun. 20, 2013 Rise Set
Actual Time 5:21 AM PDT 9:03 PM PDT
Civil Twilight 4:43 AM PDT 9:41 PM PDT
Nautical Twilight 3:51 AM PDT 10:32 PM PDT
Astronomical Twilight 2:41 AM PDT 11:42 PM PDT
Moon 6:06 PM PDT (6/20) 2:58 AM PDT (6/20)
Length of Visible Light 16h 58m
Length of Day
15h 42m
Waxing Gibbous, 89% of the Moon is Illuminated
Jun 20
Waxing Gibbous
Jun 23
Full
Jun 29
Last Quarter
Jul 8
New
Jul 15
First Quarter

Hourly Weather History & Observations

Time (PDT) Temp. Dew Point Humidity Pressure Visibility Wind Dir Wind Speed Gust Speed Precip Events Conditions
12:53 AM 57.9 °F 48.9 °F 72% 30.09 in 10.0 mi South 3.5 mph - N/A   Overcast
1:53 AM 55.9 °F 48.9 °F 77% 30.10 in 10.0 mi Variable 3.5 mph - 0.01 in   Overcast
2:53 AM 55.9 °F 50.0 °F 80% 30.09 in 10.0 mi SSW 3.5 mph - 0.00 in Rain Light Rain
3:53 AM 55.0 °F 51.1 °F 86% 30.07 in 10.0 mi Calm Calm - 0.01 in Rain Light Rain
4:53 AM 55.0 °F 50.0 °F 83% 30.07 in 10.0 mi Calm Calm - 0.00 in   Overcast
5:53 AM 55.0 °F 50.0 °F 83% 30.08 in 10.0 mi SE 3.5 mph - N/A   Overcast
6:53 AM 55.0 °F 50.0 °F 83% 30.08 in 10.0 mi Calm Calm - 0.02 in   Overcast
7:53 AM 55.9 °F 51.1 °F 84% 30.07 in 10.0 mi SSW 3.5 mph - N/A   Mostly Cloudy
8:53 AM 57.0 °F 50.0 °F 77% 30.07 in 10.0 mi SSW 4.6 mph - N/A   Overcast
9:53 AM 59.0 °F 51.1 °F 75% 30.07 in 10.0 mi Variable 3.5 mph - N/A   Overcast
10:01 AM 59.0 °F 51.8 °F 77% 30.07 in 10.0 mi SSW 3.5 mph - N/A   Overcast
10:46 AM 60.8 °F 50.0 °F 68% 30.06 in 10.0 mi SSW 4.6 mph - N/A   Overcast
10:53 AM 61.0 °F 51.1 °F 70% 30.06 in 10.0 mi Variable 4.6 mph - N/A   Overcast
11:53 AM 62.1 °F 50.0 °F 65% 30.06 in 10.0 mi SW 5.8 mph - N/A   Overcast
12:53 PM 66.0 °F 46.9 °F 50% 30.04 in 10.0 mi Variable 6.9 mph - N/A   Overcast
1:53 PM 64.0 °F 46.9 °F 54% 30.05 in 10.0 mi NNW 6.9 mph - N/A   Overcast
2:53 PM 64.9 °F 48.9 °F 56% 30.05 in 10.0 mi Variable 4.6 mph - N/A   Overcast
3:53 PM 66.9 °F 46.9 °F 49% 30.06 in 10.0 mi Variable 3.5 mph - N/A   Overcast
4:53 PM 66.9 °F 46.9 °F 49% 30.06 in 10.0 mi West 4.6 mph - N/A   Mostly Cloudy
5:53 PM 66.9 °F 50.0 °F 54% 30.07 in 10.0 mi Variable 4.6 mph - N/A   Mostly Cloudy
6:53 PM 66.0 °F 48.9 °F 54% 30.08 in 10.0 mi North 5.8 mph - N/A   Mostly Cloudy
7:53 PM 64.0 °F 48.0 °F 56% 30.09 in 10.0 mi North 9.2 mph - N/A   Overcast
8:53 PM 62.1 °F 46.0 °F 56% 30.10 in 10.0 mi North 6.9 mph - N/A   Scattered Clouds
9:53 PM 60.1 °F 46.9 °F 62% 30.13 in 10.0 mi NNW 4.6 mph - N/A   Clear
10:53 PM 60.1 °F 46.9 °F 62% 30.15 in 10.0 mi NNW 3.5 mph - N/A   Clear
11:53 PM 59.0 °F 46.9 °F 64% 30.14 in 10.0 mi North 3.5 mph - N/A   Clear